Weather for Iran

Place Alerts Temp. Conditions Humidity Pressure Wind Updated
'asineh 0 88 °F Haze 62% 29.65 in West at 5 mph 7:30 PM +0430
A'ineh 0            
Ab Bakhshan 0 93 °F Clear 52% 29.62 in Calm 7:30 PM +0430
Ab Bareh 0 79 °F Scattered Clouds 14% 29.76 in West at 9 mph 7:30 PM +0430
Ab Pakhsh 0 83 °F 12% 29.72 in West at 4 mph 7:30 PM +0430
Aba Mansuri 0 88 °F 6% 29.64 in North at 7 mph 7:30 PM +0430
Abadan 0 111 °F Clear 12% 29.62 in NE at 9 mph 7:30 PM +0430
Abatar 0 86 °F Mostly Cloudy 74% 29.56 in ENE at 7 mph 7:30 PM +0430
Abgalehdar 0 102 °F N/A 7% 29.71 in South at 2 mph 4:30 PM +0430
Ablulan 0 79 °F Scattered Clouds 10% 29.71 in NNW at 2 mph 7:30 PM +0430
Abu Musa 0 88 °F Haze 53% 29.65 in NW at 9 mph 7:30 PM +0430
Ahwaz 0 109 °F Clear 10% 29.59 in WNW at 5 mph 7:30 PM +0430
Alesteh 0 87 °F 14% 29.70 in WNW at 11 mph 4:30 PM +0430
Altanskiy 0 89 °F 32% 29.63 in ENE at 7 mph 1:00 PM +04
Aq Owlar 0 86 °F Partly Cloudy 17% 29.89 in WSW at 22 mph 7:00 PM +0430
Arak 0 85 °F Widespread Dust 4% 29.68 in West at 7 mph 7:30 PM +0430
Ardabil 0 86 °F Partly Cloudy 17% 29.89 in WSW at 22 mph 7:00 PM +0430
Armu 0 94 °F Scattered Clouds 4% 29.72 in WNW at 4 mph 4:30 PM +0430
A`la 0 111 °F 4% 29.60 in West at 13 mph 7:30 PM +0430
Babulsar 0 93 °F Clear 52% 29.62 in Calm 7:30 PM +0430
Baft 0 76 °F Partly Cloudy 8% 29.66 in NNE at 9 mph 7:30 PM +0430
Bahman Yari 0 96 °F 27% 29.63 in West at 9 mph 7:30 PM +0430
Bam 0 97 °F Scattered Clouds 4% 29.59 in East at 7 mph 4:30 PM +0430
Bandar Lengeh 0 88 °F Haze 62% 29.65 in West at 5 mph 7:30 PM +0430
Bandarabbass 0 95 °F Partly Cloudy 41% 29.59 in SSW at 9 mph 7:30 PM +0430
Began 0            
Birjand 0 90 °F Clear 4% 29.95 in NNW at 9 mph 5:30 PM +0430
Bushehr 0 91 °F Clear 49% 29.59 in West at 7 mph 7:00 PM +0430
Chahar Setun 0 54 °F Scattered Clouds 72% 29.98 in West at 2 mph 9:00 AM +0430
Chahbahar 0 90 °F 69% 29.68 in SSE at 11 mph 4:30 PM +0430
Dehnow-ye Sofla 0 79 °F Partly Cloudy 10% 29.73 in West at 4 mph 7:30 PM +0430
Deli 0 82 °F Scattered Clouds 5% 29.76 in WNW at 4 mph 7:30 PM +0430
Dowrak Suru 0 105 °F 4% 29.60 in WNW at 7 mph 7:30 PM +0430
Dudrah 0 98 °F 6% 29.63 in WSW at 13 mph 7:30 PM +0430
Esfahan 0 84 °F Scattered Clouds 13% 30.04 in West at 9 mph 7:30 PM +0430
Fasa 0 90 °F 10% 29.58 in SSW at 4 mph 7:30 PM +0430
Ghazvin 0 81 °F Scattered Clouds 24% 29.64 in ESE at 4 mph 7:30 PM +0430
Gonabad 0 95 °F N/A 8% 29.77 in SE at 7 mph 4:30 PM +0430
Gorgan 0 91 °F Scattered Clouds 31% 29.68 in WSW at 7 mph 7:30 PM +0430
Hamadan 0 84 °F Scattered Clouds 13% 30.06 in SW at 18 mph 3:30 PM +0430
Hamedan 0 79 °F Partly Cloudy 9% 29.70 in West at 7 mph 7:30 PM +0430
Hameh'id 0 106 °F 8% 29.60 in WNW at 4 mph 7:30 PM +0430
Hoseyn Mameh 0 80 °F Scattered Clouds 8% 29.67 in South at 11 mph 7:30 PM +0430
Ilam 0 86 °F 8% 29.75 in West at 11 mph 7:30 PM +0430
Iranshahr 0 100 °F Mostly Cloudy 6% 29.60 in WSW at 11 mph 7:30 PM +0430
Jask 0 88 °F Haze 67% 29.65 in South at 4 mph 7:30 PM +0430
Kahnuj 0 87 °F 23% 29.58 in Calm 7:30 AM +0430
Kashmar 0 92 °F 7% 29.63 in NNW at 4 mph 7:30 PM +0430
Kerman 0 84 °F Partly Cloudy 12% 30.06 in SE at 7 mph 7:30 PM +0430
Kermanshah 0 86 °F Partly Cloudy 10% 29.98 in WNW at 14 mph 7:30 PM +0430
Khan Baz 0 86 °F Partly Cloudy 17% 29.89 in WSW at 22 mph 7:00 PM +0430
Khoy 0 81 °F Partly Cloudy 9% 29.54 in WSW at 38 mph 7:30 PM +0430
Kulak 0            
Mahin Dasht 0 100 °F 5% 29.61 in ENE at 7 mph 4:30 PM +0430
Maku 0 28 °F Mostly Cloudy 69% 30.36 in Calm 11:00 AM +0330
Mashhad 0 88 °F Clear 15% 29.89 in South at 5 mph 7:30 PM +0430
Meyaneh 0 61 °F 46% 29.77 in West at 4 mph 7:30 AM +0430
Minab 0 95 °F Partly Cloudy 41% 29.59 in SSW at 9 mph 7:30 PM +0430
Nehbandan 0 90 °F 4% 29.61 in Calm 7:30 PM +0430
Noshahr 0 81 °F 53% 29.62 in East at 4 mph 7:30 PM +0430
Qendeal 0 73 °F Mostly Cloudy 9% 29.55 in West at 13 mph 7:30 PM +0430
Ramsar 0 88 °F Partly Cloudy 55% 29.56 in East at 5 mph 6:30 PM +0430
Rasht 0 86 °F Mostly Cloudy 74% 29.56 in ENE at 7 mph 7:30 PM +0430
Sabzevar 0 89 °F 5% 29.67 in NNW at 11 mph 7:30 PM +0430
Sanandaj 0 86 °F Clear 14% 30.04 in South at 7 mph 12:30 PM +0430
Sarakhs 0 95 °F 7% 29.70 in Calm 7:30 PM +0430
Semnan 0 92 °F Scattered Clouds 4% 29.60 in SSW at 9 mph 7:30 PM +0430
Sher Sher 0 85 °F Partly Cloudy 10% 29.60 in SW at 18 mph 4:30 PM +0430
Shiraz 0 86 °F Partly Cloudy 9% 29.98 in Calm 7:30 PM +0430
Siri Island 0 88 °F Haze 58% 29.67 in WSW at 9 mph 7:30 PM +0430
Soofian 0 81 °F Mostly Cloudy 17% 29.92 in WSW at 24 mph 7:30 PM +0430
Tabriz 0 81 °F Mostly Cloudy 17% 29.92 in WSW at 24 mph 7:30 PM +0430
Tang-e Qalb 0 46 °F Mostly Cloudy 57% 30.21 in North at 5 mph 2:30 PM +0330
Tehran 0 91 °F Partly Cloudy 9% 29.89 in NNW at 9 mph 7:30 PM +0430
Torbat-Heydarieh 0 84 °F 5% 29.65 in NW at 9 mph 7:30 PM +0430
Urmia 0 77 °F Mostly Cloudy 18% 29.86 in SSW at 16 mph 7:30 PM +0430
Yazd 0 93 °F Scattered Clouds 4% 29.64 in NNW at 4 mph 7:30 PM +0430
Zabol 0 91 °F 8% 29.60 in North at 9 mph 7:30 PM +0430
Zanjan 0 84 °F Scattered Clouds 40% 29.95 in WSW at 18 mph 6:30 PM +0430
`Ataabad 0 99 °F Partly Cloudy 17% 29.74 in SE at 7 mph 6:30 PM +0430

Alerts Legend

Tornado Warning Tornado Warning
Tornado Watch Tornado Watch
Severe Thunderstorm Warning Severe Thunderstorm Warning
Severe Thunderstorm Watch Severe Thunderstorm Watch
High Wind Advisory High Wind Advisory
Flood Warning Flood Warning
Flood Watch / Flood Statement Flood Watch / Flood Statement
Hurricane Local Statement Hurricane Local Statement
Winter Weather Statement Winter Weather Statement
Heat Advisory Heat Advisory
Dense Fog Advisory Dense Fog Advisory
Fire Weather Advisory Fire Weather Advisory
Hurricane Watch Special Weather Statement
Hurricane Warning Record Set
Tropical Storm Watch Public Report
Tropical Storm Warning Public Statement